Location: ??????
(41.3164°N, 22.6615°E)
Time: 22:41:08
(UTC+00:00)

CUBESAT XI-V - Pass Details

Date: 05 July 2022
Orbit: 668 x 690 km, 98.1° (Epoch: 17 August)

Event Time Altitude Azimuth Distance (km) Brightness Sun altitude
Exits shadow 00:26:17 51° 193° (SSW) 849 ? -20.8°
Maximum altitude 00:27:21 71° 258° (WSW) 712 ? -20.7°
Drops below altitude 10° 00:31:56 10° 343° (NNW) 2,105 ? -20.3°
Sets 00:34:11 0° 345° (NNW) 3,022 ? -20.1°
